ROBUSTA-3A (MEDITERRAN*)

Last updated on Thu Nov 21 2024 00:03:40 GMT+0000 (Coordinated Universal Time)

1 60243U 24128J 24325.29129342 .00010880 00000+0 89116-3 0 9994 2 60243 61.9916 60.1296 0025714 352.8943 7.1778 14.99475371 19983
UTC large
Height (km)
Speed (km/s)
/
Latitude / Longitude
Inclination (degrees)
Orbital Period (minutes)
Azimuth
Elevation
Range (km)
Doppler Factor

Next 0 passes for location: London (51.5072 / 0.1276)

Sorry there are no passes over London.